Location: Newark
(49.2191°N, 12.6671°E)
Time: 05:50:25
(UTC+00:00)

A-11 Canister half - Visible Passes

Search period start: 18 January 2020 00:00
Search period end: 28 January 2020 00:00
Orbit: 1516 x 1683 km, 47.2° (Epoch: 17 January)

Date Brightness Start Highest point End Pass type
(mag) Time Alt. Az. Time Alt. Az. Time Alt. Az.
18 Jan 10.2 01:39:50 29° E 01:39:50 29° E 01:43:54 10° E visible
18 Jan 8.7 03:38:02 68° WSW 03:39:23 80° S 03:48:45 10° E visible
18 Jan 9.2 05:36:13 15° W 05:43:58 62° SSW 05:53:13 10° SE visible
19 Jan 10.6 01:18:08 22° E 01:18:08 22° E 01:21:01 10° E visible
19 Jan 8.8 03:16:20 80° SSW 03:16:30 80° S 03:25:50 10° E visible
19 Jan 9.1 05:14:31 21° W 05:21:06 64° SSW 05:30:21 10° ESE visible
20 Jan 10.9 00:56:27 17° E 00:56:27 17° E 00:58:06 10° ENE visible
20 Jan 8.9 02:54:39 72° ESE 02:54:39 72° ESE 03:02:55 10° E visible
20 Jan 9.0 04:52:50 28° W 04:58:13 66° SSW 05:07:28 10° ESE visible
21 Jan 11.1 00:34:46 12° E 00:34:46 12° E 00:35:11 10° ENE visible
21 Jan 9.3 02:32:57 57° ESE 02:32:57 57° ESE 02:40:01 10° E visible
21 Jan 9.0 04:31:09 36° W 04:35:21 67° SSW 04:44:36 10° ESE visible
22 Jan 9.7 02:11:16 44° E 02:11:16 44° E 02:17:06 10° E visible
22 Jan 8.9 04:09:28 46° W 04:12:28 69° SSW 04:21:43 10° ESE visible
22 Jan 9.8 06:08:17 10° W 06:16:20 35° SW 06:24:31 10° SSE visible
23 Jan 10.0 01:49:37 34° E 01:49:37 34° E 01:54:11 10° E visible
23 Jan 8.8 03:47:48 59° WSW 03:49:35 70° SSW 03:58:50 10° ESE visible
23 Jan 9.7 05:46:00 12° W 05:53:31 37° SW 06:01:48 10° SSE visible
24 Jan 10.4 01:27:58 26° E 01:27:58 26° E 01:31:16 10° E visible
24 Jan 8.8 03:26:10 70° SW 03:26:42 72° SSW 03:35:58 10° ESE visible
24 Jan 9.6 05:24:22 17° W 05:30:41 38° SW 05:39:04 10° SSE visible
25 Jan 10.7 01:06:21 19° E 01:06:21 19° E 01:08:23 10° E visible
25 Jan 8.9 03:04:33 70° SSE 03:04:33 70° SSE 03:13:04 10° ESE visible
25 Jan 9.5 05:02:46 23° W 05:07:51 40° SW 05:16:20 10° SSE visible
26 Jan 11.0 00:44:46 13° E 00:44:46 13° E 00:45:28 10° E visible
26 Jan 9.2 02:42:59 58° SE 02:42:59 58° SE 02:50:11 10° ESE visible
26 Jan 9.4 04:41:11 29° W 04:45:01 42° SW 04:53:34 10° SSE visible
27 Jan 9.6 02:21:26 44° ESE 02:21:26 44° ESE 02:27:18 10° ESE visible
27 Jan 9.3 04:19:38 37° WSW 04:22:11 44° SW 04:30:49 10° SSE visible
